Terminal Aerodrome Forecast
Issued by NWS

Home | Current Version | Previous Version | Text Only | Print | Product List | Glossary On
Versions: 1 2 3 4 5 6 7 8 9 10 11 12 13 14 15 16 17 18 19 20 21 22 23 24 25 26 27 28 29 30 31 32 33 34 35 36 37 38 39 40 41 42 43 44 45 46 47 48 49 50
000
FTUS41 KBOX 210838 AAA
TAFMHT
TAF AMD
KMHT 210838Z 2109/2206 00000KT P6SM BKN070 BKN110
     FM211800 06006KT 5SM -SHRA OVC025
     FM220400 01007KT 3SM -DZ BR OVC010=

USA.gov is the U.S. government's official web portal to all federal, state and local government web resources and services.